Location: Makanda
(37.6176°N, 89.2090°W)
Time: 16:11:54
(UTC+00:00)

Cosmos 1980 - Pass Details

Date: 23 September 2019
Orbit: 841 x 846 km, 71.0° (Epoch: 14 October)

Event Time Altitude Azimuth Distance (km) Brightness Sun altitude
Rises 01:42:38 0° 332° (NNW) 3,402 7.5 -22.0°
Reaches altitude 10° 01:45:08 10° 327° (NNW) 2,463 6.8 -22.5°
Maximum altitude 01:50:35 50° 253° (WSW) 1,055 4.4 -23.5°
Enters shadow 01:54:47 17° 183° (S) 2,018 5.5 -24.3°
